997  
ASUS43 KDTX 271110  
RWRMI  
MICHIGAN HOURLY REGIONAL WEATHER ROUNDUP  
NATIONAL WEATHER SERVICE DETROIT/PONTIAC MI  
700 AM EDT WED MAY 27 2015  
 
NOTE: "FAIR" INDICATES FEW OR NO CLOUDS BELOW 12,000 FEET WITH NO  
SIGNIFICANT WEATHER AND/OR TO VISIBILITY
.  
 
MIZ047>049-052>055-059>063-066>070-074>076-081>083-271200-  
SOUTHEAST LOWER MICHIGAN  
 
CITY SKY/WX TMP DP RH WIND PRES REMARKS
 
ADRIAN CLEAR 64 60 87 SW10 29.98R  
ALMA CLOUDY 66 62 85 SW8G16 29.87R  
ANN ARBOR PTCLDY 65 61 87 SW8G17 29.96R  
BAD AXE MOCLDY 65 60 82 S12G17 29.88R  
CARO PTCLDY 64 60 86 SW10 29.87S  
DETROIT CITY PTCLDY 67 62 84 SW10 29.96R  
DETROIT CLOUDY 67 62 84 S13 29.97R  
FLINT PTCLDY 67 60 78 S10 29.90S  
GROSSE ILE PTCLDY 68 63 83 S9 29.97R  
HILLSDALE CLEAR 65 62 90 SW9 29.98R  
HOWELL PTCLDY 65 60 84 S7 29.93R  
 
CITY SKY/WX TMP DP RH WIND PRES REMARKS
 
JACKSON PTCLDY 66 59 78 SW13 29.94R  
LAMBERTVILLE CLEAR 68 61 77 SW7 29.99R  
LANSING CLOUDY 66 59 78 SW16G25 29.90R  
LAPEER FAIR 64 59 85 S10 29.91S  
MASON CLOUDY 65 58 80 S8G17 29.92R  
MONROE CLEAR 66 63 88 S8 29.96R  
MT. CLEMENS PTCLDY 66 63 90 S10 29.93R  
PONTIAC PTCLDY 64 61 90 S7 29.93R  
PORT HOPE N/A N/A N/A N/A S6 29.84S  
PORT HURON CLEAR 64 63 94 S7 29.94R  
TRI CITIES MOCLDY 68 60 75 SW13 29.86R  
MIDLAND CLOUDY 67 60 78 S12G18 29.84R  
TROY CLEAR 67 64 89 SW8 29.96S  
SAGINAW HB PTCLDY 64 63 94 SW15 29.86R  

 
MIZ043>046-050>051-056>058-064>065-071>073-077>080-271200-  
SOUTHWEST LOWER MICHIGAN  
 
CITY SKY/WX TMP DP RH WIND PRES REMARKS
 
BATTLE CREEK MOCLDY 66 59 78 SW15 29.93R  
BENTON HARBOR CLEAR 66 60 81 SW14 29.91R  
BIG RAPIDS CLOUDY 63 59 88 SW12G18 29.83R  
COLDWATER PTCLDY 64 59 83 SW7 29.96R  
FREMONT CLOUDY 60 59 97 SW10 29.85R FOG  
HOLLAND CLEAR 65 59 81 SW17 29.89R  
GRAND RAPIDS MOCLDY 67 60 78 SW17G24 29.88R  
IONIA CLOUDY 67 60 77 SW16 29.88R  
KALAMAZOO PTCLDY 67 59 75 SW13G22 29.94R  
LUDINGTON CLEAR 56 53 89 SW20 29.82R  
MARSHALL PTCLDY 66 59 79 SW12G18 29.93R  
MOUNT PLEASANT CLOUDY 66 61 83 S10 29.84R  
MUSKEGON PTCLDY 59 57 93 SW15G24 29.87R  
SOUTH HAVEN CLOUDY 68 60 74 SW15G29 29.91R  

 
MIZ016>042-271200-  
NORTHERN LOWER MICHIGAN  
 
CITY SKY/WX TMP DP RH WIND PRES REMARKS
 
ALPENA MOCLDY 65 60 84 S12 29.77S  
BEAVER ISLAND LGT RAIN 55 54 96 SW17G28 29.67R  
BELLAIRE CLOUDY 64 57 76 SW12G20 29.74R  
CADILLAC PTCLDY 62 58 87 SW17G23 29.80R  
CHARLEVOIX CLOUDY 63 57 83 SW16G23 29.74R  
FRANKFORT CLOUDY 59 51 76 SW12G21 29.77R  
GAYLORD PTCLDY 62 59 90 S15G25 29.75R  
GRAYLING PTCLDY 63 59 88 S8 29.79R  
HARBOR SPRINGS CLOUDY 61 56 85 SW13G22 29.70R  
HOUGHTON LAKE CLOUDY 64 60 87 SW13G21 29.81R  
MANISTEE CLOUDY 61 54 77 SW14G22 29.80R  
OSCODA PTCLDY 64 62 91 S13 29.80S  
PELLSTON CLOUDY 63 57 81 S14G29 29.70R  
ROGERS CITY PTCLDY 63 60 88 S10G16 29.74S  
TRAVERSE CITY CLOUDY 65 57 75 SW13G22 29.75R  

 
MIZ007>008-015-271200-  
EASTERN UPPER MICHIGAN  
 
CITY SKY/WX TMP DP RH WIND PRES REMARKS
 
KINROSS CLOUDY 61 61 100 S9 29.69S  
MACKINAC ISLAN CLOUDY 62 59 90 S9 29.68S  
NEWBERRY CLOUDY 54 53 99 S13 29.65R FOG  
S. S. MARIE CLOUDY 61 58 90 S12 29.68S  
MUNISING N/A 46 43 89 N7 29.67R  

 
MIZ004>006-011>014-085-271200-  
CENTRAL UPPER MICHIGAN  
 
CITY SKY/WX TMP DP RH WIND PRES REMARKS
 
MANISTIQUE CLOUDY 47 46 97 CALM 29.66R FOG  
ESCANABA CLOUDY 52 48 87 NW6 29.70R  
MENOMINEE CLOUDY 59 55 88 NW5 29.71R  
SAWYER-GWINN CLOUDY 54 52 94 N10 29.68R  

 
MIZ001>003-009>011-084-271200-  
WESTERN UPPER MICHIGAN  
 
CITY SKY/WX TMP DP RH WIND PRES REMARKS
 
IRON MOUNTAIN LGT RAIN 54 52 93 NW9 29.72R FOG  
HOUGHTON FOG 46 45 96 NW14 29.73R VSB 1/4  
COPPER HARBOR N/A 44 43 96 N7 29.71R  
IRONWOOD CLOUDY 52 50 93 W8 29.77R  

 
 
ABBREVIATIONS USED IN REMARKS  
TC - TEMPERATURE IN CELSIUS  
WCI - WIND CHILL INDEX  
HX - HEAT INDEX  
VSB - VISIBILITY  
 
CLICK HERE TO GO TO PREVIOUS BULLETINS.

The Nexlab MI Page Main Text Page